User: anonymous   Login
Location: Ostrava
(49.8330°N, 18.2830°E)
Time: 18:17:26
(UTC+02:00)
Language:

Iridium 7 - Orbit

View from above orbital plane
View from above orbital plane
View from above satellite
View from above satellite

Ground track
Ground track

The orbit data is extracted from the following two-line orbital elements,

1 24793U 97020B   15148.39244240  .00000229  00000-0  74784-4 0  9997
2 24793 086.3964 272.7344 0002247 095.4280 320.9559 14.34216602945588
Epoch (UTC): 28 May 2015 09:25:07
Eccentricity: 0.0002247
inclination: 86.3964°
perigee height: 776 km
apogee height: 779 km
right ascension of ascending node: 272.7344°
argument of perigee: 95.4280°
revolutions per day: 14.34216602
mean anomaly at epoch: 320.9559°
orbit number at epoch: 94558

The dashed part of the orbit path shows where the satellite is in the earth's shadow,  

DLR